Location: Poughquag
(41.6090°N, 73.6820°W)
Time: 13:10:37
(UTC-04:00)

Vanguard 2 - Pass Details

Date: 29 May 2020
Orbit: 552 x 2938 km, 32.9° (Epoch: 05 July)

Event Time Altitude Azimuth Distance (km) Brightness Sun altitude
Rises 17:17:38 0° 198° (SSW) 6,515 12.4 31.7°
Reaches altitude 10° 17:24:55 10° 180° (S) 5,117 11.8 30.3°
Maximum altitude 17:31:53 15° 150° (SSE) 4,174 11.1 29.0°
Drops below altitude 10° 17:37:37 10° 119° (ESE) 4,094 10.8 28.0°
Sets 17:42:14 0° 98° (E) 4,617 10.9 27.1°
